This is the latest recevied weather packets stored in our database for station/object VE6EN. If no packets are shown the sender has not sent any weather packets the latest 10 day(s).
| Time | Temp. | Humidity | Pressure | Rain* | Wind** | Luminosity | Snow |
|---|---|---|---|---|---|---|---|
| 1777871402 | 9.44° C | 52% | 1013.7 hPa | 0 mm | - | - | - |
| 1777870801 | 10° C | 50% | 1013.6 hPa | 0 mm | - | - | - |
| 1777870204 | 10° C | 49% | 1013.5 hPa | 0 mm | - | - | - |
| 1777869605 | 10° C | 48% | 1013.4 hPa | 0 mm | - | - | - |
| 1777869000 | 10.56° C | 46% | 1013.3 hPa | 0 mm | - | - | - |
| 1777868401 | 10.56° C | 45% | 1013.1 hPa | 0 mm | - | - | - |
| 1777867804 | 10.56° C | 43% | 1013 hPa | 0 mm | - | - | - |
| 1777867205 | 10.56° C | 42% | 1012.8 hPa | 0 mm | - | - | - |
| 1777866602 | 11.11° C | 42% | 1012.5 hPa | 0 mm | - | - | - |
| 1777866004 | 11.11° C | 41% | 1012.2 hPa | 0 mm | - | - | - |
| 1777865405 | 11.67° C | 41% | 1011.9 hPa | 0 mm | - | - | - |
| 1777864800 | 11.67° C | 40% | 1011.3 hPa | 0 mm | - | - | - |
| 1777864202 | 12.22° C | 39% | 1011.1 hPa | 0 mm | - | - | - |
| 1777863599 | 12.22° C | 39% | 1010.8 hPa | 0 mm | - | - | - |
| 1777863000 | 12.78° C | 39% | 1010.6 hPa | 0 mm | - | - | - |
| 1777862400 | 12.78° C | 39% | 1010.4 hPa | 0 mm | - | - | - |
| 1777861800 | 12.78° C | 39% | 1010.3 hPa | 0 mm | - | - | - |
| 1777861199 | 13.33° C | 38% | 1010.2 hPa | 0 mm | - | - | - |
| 1777860600 | 13.89° C | 37% | 1010.2 hPa | 0 mm | - | - | - |
| 1777860002 | 13.89° C | 35% | 1010 hPa | 0 mm | - | - | - |
| 1777859399 | 14.44° C | 35% | 1009.8 hPa | 0 mm | - | - | - |
| 1777858804 | 15.56° C | 35% | 1009.4 hPa | 0 mm | - | - | - |
| 1777858205 | 15.56° C | 35% | 1009.3 hPa | 0 mm | - | - | - |
| 1777857600 | 16.11° C | 34% | 1009 hPa | 0 mm | - | - | - |
| 1777857004 | 16.67° C | 33% | 1008.8 hPa | 0 mm | - | - | - |
* Rain latest hour (hover to see other rain measurements)
** Current wind speed in m/s (hover to see current wind gust speed)